DW6826 Weather Reports


Display with metric or nautical units.
time (UTC)temp
F
wind
direction
speed
MPH
gust
MPH
rain 1hr
in
rain 24hr
in
rain mn
in
humidity
%
barometer
mb
20260503214826 67 251 1.0 3.0 0.00 0.00 0.00 58 1016.7
20260503214347 67 314 1.0 4.0 0.00 0.00 0.00 59 1016.8
20260503213919 67 62 1.0 4.0 0.00 0.00 0.00 58 1016.7
20260503213325 67 293 1.0 3.0 0.00 0.00 0.00 58 1016.7
20260503212828 67 329 1.0 4.0 0.00 0.00 0.00 59 1016.7
20260503212332 67 325 2.0 4.0 0.00 0.00 0.00 59 1016.7
20260503211835 67 197 1.0 5.0 0.00 0.00 0.00 57 1016.8
20260503211336 67 128 1.0 4.0 0.00 0.00 0.00 57 1016.8
20260503210849 67 210 1.0 3.0 0.00 0.00 0.00 57 1016.9
20260503210412 67 266 1.0 3.0 0.00 0.00 0.00 57 1016.9
20260503205844 67 16 0.0 4.0 0.00 0.01 0.00 57 1017.0
20260503205347 67 156 2.0 4.0 0.00 0.01 0.00 56 1017.2
20260503204909 67 341 1.0 4.0 0.00 0.01 0.00 57 1017.2
20260503204416 67 102 1.0 4.0 0.00 0.01 0.00 58 1017.2
20260503203821 67 265 1.0 3.0 0.00 0.01 0.00 57 1017.3
20260503203344 67 270 1.0 3.0 0.00 0.01 0.00 56 1017.2
20260503202914 67 252 1.0 4.0 0.00 0.01 0.00 59 1017.2
20260503202434 67 243 1.0 5.0 0.00 0.01 0.00 57 1017.2
20260503201845 67 283 1.0 2.0 0.00 0.01 0.00 58 1017.4
20260503200843 67 305 1.0 3.0 0.00 0.01 0.00 55 1017.5
20260503200326 67 354 0.0 5.0 0.00 0.01 0.00 57 1017.5
20260503195837 67 127 2.0 5.0 0.00 0.07 0.00 56 1017.6
20260503195358 67 247 1.0 5.0 0.00 0.07 0.00 57 1017.5
20260503194841 67 211 1.0 6.0 0.00 0.07 0.00 55 1017.6
20260503194342 67 199 2.0 5.0 0.00 0.07 0.00 55 1017.6
20260503193855 67 74 1.0 6.0 0.00 0.07 0.00 56 1017.7
20260503193420 67 162 2.0 6.0 0.00 0.07 0.00 55 1017.7
20260503192848 67 143 3.0 5.0 0.00 0.07 0.00 56 1017.9
20260503192351 67 241 1.0 4.0 0.00 0.07 0.00 56 1018.0
20260503191853 67 73 0.0 5.0 0.00 0.07 0.00 56 1018.1
20260503191355 67 119 2.0 6.0 0.00 0.07 0.00 57 1018.2
20260503190845 66 4 1.0 6.0 0.00 0.07 0.00 56 1018.4
20260503190408 66 308 1.0 8.0 0.00 0.07 0.00 57 1018.4
20260503185903 66 228 2.0 8.0 0.00 0.11 0.00 55 1018.4
20260503185407 67 108 2.0 7.0 0.00 0.11 0.00 54 1018.5
20260503184849 66 256 0.0 6.0 0.00 0.11 0.00 56 1018.4
20260503184401 66 292 1.0 6.0 0.00 0.11 0.00 57 1018.5
20260503183905 66 263 1.0 5.0 0.00 0.11 0.00 57 1018.5
20260503183326 66 295 2.0 6.0 0.00 0.11 0.00 57 1018.6
20260503182830 66 117 2.0 5.0 0.00 0.11 0.00 56 1018.7
20260503182344 67 282 1.0 6.0 0.00 0.11 0.00 55 1018.8
20260503181827 67 19 2.0 6.0 0.00 0.11 0.00 55 1018.8
20260503181330 68 93 3.0 6.0 0.00 0.11 0.00 53 1018.8
20260503180833 68 138 1.0 4.0 0.00 0.11 0.00 52 1018.8
20260503180337 69 206 2.0 3.0 0.00 0.11 0.00 50 1018.7
20260503175909 69 354 0.0 2.0 0.00 0.22 0.00 48 1018.8
20260503175415 69 331 1.0 3.0 0.00 0.22 0.00 47 1018.7
20260503174835 69 103 0.0 3.0 0.00 0.22 0.00 48 1018.7
20260503174406 70 327 2.0 3.0 0.00 0.22 0.00 47 1018.7
20260503173907 70 320 0.0 2.0 0.00 0.22 0.00 48 1018.7
20260503173418 70 320 1.0 2.0 0.00 0.22 0.00 46 1018.7
20260503172834 70 343 1.0 3.0 0.00 0.22 0.00 48 1018.8
20260503172339 70 162 1.0 3.0 0.00 0.22 0.00 46 1018.8
20260503171911 69 126 0.0 3.0 0.00 0.22 0.00 48 1018.9
20260503171329 70 281 1.0 7.0 0.00 0.22 0.00 48 1018.9
20260503170852 70 191 1.0 4.0 0.00 0.22 0.00 45 1018.9
20260503170358 70 58 0.0 3.0 0.00 0.22 0.00 49 1019.1
20260503150910 66 104 2.0 8.0 0.00 0.36 0.00 54 1019.8
20260503150341 66 4 1.0 5.0 0.00 0.36 0.00 55 1019.7
20260503131343 59 118 1.0 4.0 0.00 0.73 0.00 87 1019.0
20260503130858 59 104 1.0 4.0 0.00 0.73 0.00 87 1019.1
20260503130423 58 108 1.0 4.0 0.00 0.73 0.00 87 1019.1
20260503110422 47 142 0.0 0.0 0.00 0.83 0.00 96 1018.0
20260503090344 49 143 0.0 0.0 0.00 1.02 0.00 96 1016.6
20260503081345 50 143 0.0 0.0 0.00 1.11 0.00 96 1016.2
20260503080918 50 143 0.0 0.0 0.00 1.11 0.00 96 1016.2
20260503080339 50 143 0.0 0.0 0.00 1.11 0.00 96 1016.1
20260503072907 50 143 0.0 0.0 0.00 1.15 0.00 96 1015.9
20260503072417 50 143 0.0 0.0 0.00 1.15 0.00 96 1015.9
20260503071823 51 143 0.0 0.0 0.00 1.15 0.00 96 1015.8
20260503071325 51 143 0.0 0.0 0.00 1.15 0.00 96 1015.8
20260503070855 51 143 0.0 0.0 0.00 1.15 0.00 96 1015.8
20260503070419 51 143 0.0 0.0 0.00 1.15 0.00 96 1015.7
20260503054859 52 143 0.0 0.0 0.00 1.19 0.00 95 1015.4
20260503054412 53 143 0.0 0.0 0.00 1.19 0.00 95 1015.4
20260503053848 53 143 0.0 0.0 0.00 1.19 0.00 96 1015.4
20260503053332 53 143 0.0 0.0 0.00 1.19 0.00 95 1015.2
20260503052836 53 143 0.0 0.0 0.00 1.19 0.00 95 1015.2
20260503052341 53 143 0.0 0.0 0.00 1.19 0.00 95 1015.2
20260503051838 53 143 0.0 0.0 0.00 1.19 0.00 95 1015.2
20260503051340 53 143 0.0 0.0 0.00 1.19 0.00 96 1015.2
20260503050827 53 143 0.0 0.0 0.00 1.19 0.00 95 1015.3
20260503050323 53 143 0.0 0.0 0.00 1.19 0.00 95 1015.1
20260503045828 53 143 0.0 0.0 0.00 1.19 0.00 95 1015.1
20260503045330 54 143 0.0 0.0 0.00 1.19 0.00 95 1015.1
20260503044837 54 143 0.0 0.0 0.00 1.19 0.00 95 1015.0
20260503044330 54 143 0.0 0.0 0.00 1.19 0.00 95 1014.9
20260503043836 54 143 0.0 0.0 0.00 1.19 0.00 95 1014.9
20260503043402 54 143 0.0 0.0 0.00 1.19 0.00 95 1014.9
20260503042845 54 143 0.0 0.0 0.00 1.19 0.00 96 1014.9
20260503042330 54 143 0.0 0.0 0.00 1.19 0.00 96 1014.8
20260503041829 54 143 0.0 1.0 0.00 1.19 0.00 96 1014.8
20260503041334 54 143 0.0 1.0 0.00 1.19 0.00 96 1014.7
20260503040839 54 143 0.0 1.0 0.00 1.19 0.00 96 1014.7
20260503040325 54 154 0.0 1.0 0.00 1.19 0.00 96 1014.6
20260503035851 54 158 0.0 0.0 0.00 1.20 1.19 95 1014.6
20260503035355 54 158 0.0 0.0 0.00 1.20 1.19 95 1014.4
20260503034827 54 158 0.0 0.0 0.00 1.20 1.19 95 1014.4
20260503034328 54 158 0.0 0.0 0.00 1.20 1.19 95 1014.4
20260503033848 54 158 0.0 1.0 0.00 1.20 1.19 95 1014.4
20260503033400 54 159 0.0 0.0 0.00 1.20 1.19 95 1014.3
20260503032823 55 199 0.0 0.0 0.00 1.20 1.19 95 1014.3
20260503032335 55 199 0.0 0.0 0.00 1.20 1.19 95 1014.2
20260503031839 55 199 0.0 1.0 0.00 1.20 1.19 95 1014.2
20260503031342 55 199 0.0 1.0 0.00 1.20 1.19 94 1014.1
20260503030848 55 199 0.0 1.0 0.00 1.20 1.19 95 1014.1
20260503030418 55 199 0.0 1.0 0.00 1.20 1.19 95 1014.0
20260503025836 55 199 0.0 1.0 0.00 1.20 1.19 95 1013.9
20260503025341 55 143 0.0 0.0 0.00 1.20 1.19 95 1014.0
20260503024844 55 143 0.0 0.0 0.00 1.20 1.19 95 1014.0
20260503024351 55 143 0.0 2.0 0.00 1.20 1.19 95 1013.8
20260503023835 55 143 0.0 2.0 0.00 1.20 1.19 95 1013.7
20260503023353 55 122 0.0 2.0 0.00 1.20 1.19 95 1013.7
20260503022344 55 122 0.0 0.0 0.00 1.20 1.19 95 1013.5
20260503021849 55 122 0.0 2.0 0.00 1.20 1.19 95 1013.3
20260503021359 55 122 0.0 2.0 0.00 1.20 1.19 95 1013.0
20260503020919 55 131 0.0 1.0 0.00 1.20 1.19 95 1012.9
20260503020344 55 120 0.0 2.0 0.00 1.20 1.19 95 1012.9
20260503015834 55 152 0.0 1.0 0.00 1.21 1.19 95 1013.0
20260503015339 55 263 0.0 0.0 0.00 1.21 1.19 95 1012.9
20260503014842 55 117 0.0 1.0 0.00 1.21 1.19 95 1012.7
20260503014404 55 117 0.0 3.0 0.00 1.21 1.19 95 1012.6
20260503013916 55 117 1.0 3.0 0.00 1.21 1.19 95 1012.5
20260503013359 55 84 0.0 3.0 0.00 1.21 1.19 95 1012.4
20260503012915 55 83 1.0 3.0 0.00 1.21 1.19 95 1012.3
20260503012322 55 153 0.0 3.0 0.00 1.21 1.19 95 1012.4
20260503011834 55 145 0.0 3.0 0.00 1.21 1.19 95 1012.6
20260503011335 56 91 0.0 1.0 0.00 1.21 1.19 95 1012.6
20260503010836 56 91 0.0 2.0 0.00 1.21 1.19 95 1012.6
20260503010358 55 108 0.0 2.0 0.00 1.21 1.19 95 1012.7
20260503005858 56 108 1.0 2.0 0.00 1.23 1.19 95 1012.7
20260503005349 56 135 0.0 2.0 0.00 1.23 1.19 95 1012.6
20260503004852 56 328 0.0 2.0 0.00 1.23 1.19 95 1012.7
20260503004356 56 307 0.0 3.0 0.00 1.23 1.19 95 1012.4
20260503003920 56 270 1.0 4.0 0.00 1.23 1.19 95 1012.2
20260503003349 56 91 0.0 2.0 0.00 1.23 1.19 95 1012.1
20260503002912 56 91 0.0 3.0 0.00 1.23 1.19 95 1012.1
20260503002441 56 64 0.0 3.0 0.00 1.23 1.19 95 1012.2
20260503001840 56 143 0.0 2.0 0.00 1.23 1.19 95 1011.9
20260503001411 56 100 0.0 2.0 0.00 1.23 1.19 95 1011.7
20260503000914 56 173 0.0 4.0 0.00 1.23 1.19 95 1011.7
20260503000335 56 314 1.0 4.0 0.00 1.23 1.19 95 1011.7
20260502235905 56 185 0.0 3.0 0.00 1.28 1.19 95 1011.8
20260502235328 56 149 0.0 3.0 0.00 1.28 1.19 95 1011.7
20260502234859 56 271 0.0 4.0 0.00 1.28 1.19 95 1011.7
20260502234420 56 271 0.0 4.0 0.00 1.28 1.19 95 1011.6
20260502233851 56 77 0.0 5.0 0.00 1.28 1.19 95 1011.4
20260502233414 56 87 0.0 7.0 0.00 1.28 1.19 95 1011.4
20260502232833 57 91 1.0 7.0 0.00 1.28 1.19 95 1011.4
20260502232406 57 83 1.0 7.0 0.00 1.28 1.19 95 1011.4
20260502231826 57 322 1.0 3.0 0.00 1.28 1.19 95 1011.2
20260502231356 57 22 0.0 3.0 0.00 1.28 1.19 95 1011.0
20260502230857 57 87 1.0 3.0 0.00 1.28 1.19 95 1010.9
20260502225843 57 285 0.0 4.0 0.00 1.30 1.19 95 1010.9
20260502225354 57 116 1.0 4.0 0.00 1.30 1.19 96 1011.0
20260502224920 57 164 0.0 2.0 0.00 1.30 1.19 96 1011.0
20260502224347 57 83 1.0 2.0 0.00 1.30 1.19 96 1011.0
20260502223913 57 154 0.0 3.0 0.00 1.30 1.19 96 1011.1
20260502223333 57 282 1.0 3.0 0.00 1.30 1.19 95 1011.0
20260502222342 57 121 1.0 3.0 0.00 1.30 1.19 96 1011.0
20260502221915 57 38 0.0 3.0 0.00 1.30 1.19 96 1011.0
20260502221332 57 226 0.0 3.0 0.00 1.30 1.19 95 1010.9
20260502220343 57 129 0.0 12.0 0.00 1.30 1.19 95 1010.8
20260502215351 57 55 0.0 6.0 0.00 1.35 1.19 95 1010.7